Main page
METAR-TAF:

METAR-TAF

Airports :

Hohenfels, Germany

latitude: 49-13N, longitude: 011-50E, elevation: 442 m

Current weather observation

The report was made 1 hour and 11 minutes ago, at 17:56 UTC
Wind 3 kt from the West
Temperature 6°C
Humidity 100%
Pressure 1030 hPa
Visibility: 6000 m
Clear sky
mist

METAR: ETIH 131756Z AUTO 28003KT 6000 BR CLR 06/06 A3043 RMK AO2 SLP320 60000 T00590059 10104 20057 52019 $

Time: 20:07 (19:07 UTC)


TAF: missing

Weather observations and forecasts of more than 4000 airports (METAR and TAF reports).

The available stations are represented by yellow and red dots on the map.

Hover mouse over dot to see the name of the station.

Then click to see weather observations and forecasts.

To change the map : click on the green buttons with a black cross to zoom in, on the green button with a dash to zoom out, or on the green arrows for adjacent maps.


METAR-TAF: